Regional Weather Roundup
Issued by NWS Northern Indiana

Home | Current Version | Previous Version | Graphics & Text | Print | Product List | Glossary On
Versions: 1 2 3 4 5 6 7 8 9 10 11 12 13 14 15 16 17 18 19 20 21 22 23 24 25 26 27 28 29 30 31 32 33 34 35 36 37 38 39 40 41 42 43 44 45 46 47 48 49 50
000
ASUS43 KIWX 251710
RWRIWX

KIWX WEATHER ROUNDUP
NATIONAL WEATHER SERVICE NORTHERN INDIANA
100 PM EDT THU AUG 25 2016

NOTE: "FAIR" INDICATES FEW OR NO CLOUDS BELOW 12,000 FEET WITH NO
SIGNIFICANT WEATHER AND/OR OBSTRUCTIONS TO VISIBILITY.

* THESE STATIONS ARE NOT UNDER NWS QUALITY CONTROL. THEY ALSO MAY NOT
  REPORT WEATHER SUCH AS PRECIPITATION OR FOG.

INZ001>027-251800-
NORTHERN INDIANA

CITY           SKY/WX    TMP DP  RH WIND       PRES   REMARKS
GARY*          CLOUDY    79  72  78 W9        30.05R
VALPARAISO     CLOUDY    76  70  82 W12       30.06R
MICHIGAN CITY* CLOUDY    73  73 100 MISG      30.05R
LAPORTE*       CLOUDY    77  77 100 W7        30.05R
KNOX*          CLOUDY    77  50  38 W10       30.04R
SOUTH BEND     CLOUDY    76  70  82 W13       30.04R
ELKHART*       PTSUNNY   77  68  73 W12G17    30.03
GOSHEN         PTSUNNY   81  68  64 W14       30.03R
MONTICELLO*    PTSUNNY   80  66  63 SW12G17   30.05S
LOGANSPORT*    MOSUNNY   81  70  69 W14G20    30.06S
ROCHESTER*     MOSUNNY   84  72  65 SW16      30.05S
WARSAW*        PTSUNNY   81  72  74 SW9       30.04R
ANGOLA*        PTSUNNY   84  73  70 W7        30.02R
FORT WAYNE     MOSUNNY   84  70  62 SW14G20   30.04S
HUNTINGTON*    MOSUNNY  N/A N/A N/A SW12G18   30.05R
PERU/GRISSOM   SUNNY     82  69  63 SW14G20   30.05R
MARION*        SUNNY     83  69  62 W12G17    30.08R

$$
INZ028>050-251800-
CENTRAL INDIANA

CITY           SKY/WX    TMP DP  RH WIND       PRES   REMARKS
LAFAYETTE      SUNNY     82  70  66 W12       30.06R
MUNCIE*        MOSUNNY   85  73  67 SW12      30.07R
INDIANAPOLIS   MOSUNNY   88  71  57 W12       30.08R

$$
MIZ043>046-050>051-056>058-064>065-071>073-077>080-251800-
SOUTHWEST LOWER MICHIGAN

CITY           SKY/WX    TMP DP  RH WIND       PRES   REMARKS
BATTLE CREEK   CLOUDY    76  72  87 W13       30.02R
BENTON HARBOR  CLOUDY    76  71  85 W13       30.02S
COLDWATER*     PTSUNNY   80  69  68 W12       30.01S
HILLSDALE*     MOSUNNY   82  71  67 SW13      30.01S
HOLLAND        CLOUDY    76  71  85 W10       30.02R
GRAND RAPIDS   CLOUDY    77  70  79 W9        29.99R
KALAMAZOO      MOSUNNY   79  70  74 SW12      30.01S
STURGIS*       PTSUNNY   81  68  63 W12       30.01S
THREE RIVERS*  PTSUNNY   80  69  67 W8        30.02S

$$
OHZ001>008-015>018-024>025-251800-
NORTHWEST OHIO

CITY           SKY/WX    TMP DP  RH WIND       PRES   REMARKS
WAUSEON*       FAIR      84  73  70 SW9G17    30.01S
DEFIANCE       MOSUNNY   84  70  62 SW10      30.02F
FINDLAY        SUNNY     87  70  56 SW15      30.02F
TOLEDO EXPRESS MOSUNNY   83  73  72 SW12      30.00F
TOLEDO METCALF MOSUNNY   85  74  69 SW15      30.00F
LIMA           MOSUNNY   85  75  72 W9        30.05R

$$
AND FOR LAKE MICHIGAN COASTAL AND OPEN LAKE BUOY OBSERVATIONS

STATION/POSITION TEMP    WIND        PRES    VSBY  WAVE
                 AIR SEA DIR/SP/G                  HT/PER
                 (F)     (DEG/KT/KT) (MB)    (MI)  (FT/S)
CALUMET HARBOR    76     270/  5/ 10 1016.3R
MICHIGAN CITY     73     240/ 15/ 16   N/A
BURNS HARBOR      74     260/  8/ 13 1017.3R
SAINT JOSEPH      76     270/  6/  9 1017.6R
SOUTH LAKE BUOY   71 74  330/ 10/ 12 1016.0R         1/ 3
4 MI NW BRIDGMAN  74 74  280/ 12/ 14 1016.5R         3/ 4
MICHIGAN CITY     73 73  280/ 10/ 12   N/A           1/ 3

$$
&&




USA.gov is the U.S. government's official web portal to all federal, state and local government web resources and services.